Regional Weather Roundup
Issued by NWS Charleston, SC

Current Version | Previous Version | Text Only | Print | Product List | Glossary Off
Versions: 1 2 3 4 5 6 7 8 9 10 11 12 13 14 15 16 17 18 19 20 21 22 23 24 25 26 27 28 29 30 31 32 33 34 35 36 37 38 39 40 41 42 43 44 45 46 47 48 49 50
000 ASUS42 KCHS 202025 RWRCHS REGIONAL WEATHER ROUNDUP NATIONAL WEATHER SERVICE CHARLESTON SC 400 PM EDT WED AUG 20 2014 NOTE: "FAIR" INDICATES FEW OR NO CLOUDS BELOW 12,000 FEET WITH NO SIGNIFICANT WEATHER AND/OR OBSTRUCTIONS TO VISIBILITY. NOT ALL STATIONS ARE QUALITY CONTROLLED BY THE NATIONAL WEATHER SERVICE. USE DATA WITH CAUTION...ESPECIALLY DEWPOINT OBSERVATIONS. SCZ027-030-031-034>040-042>050-202100- ...SOUTH CAROLINA... CITY SKY/WX TMP DP RH WIND PRES REMARKS N CHARLESTON MOSUNNY 95 72 47 VRB6 29.96F HX 103 WATERFRONT PRK N/A 91 N/A N/A W7 N/A FORT JOHNSON NOT AVBL MOUNT PLEASANT FAIR 93 72 49 NW6 29.96S HX 100 JOHNS ISLAND CLEAR 93 73 52 W8 29.97S HX 102 PINOPOLIS N/A 93 75 55 CALM 29.90F HX 104 MONCKS CORNER N/A 93 77 59 CALM 29.97S HAZE HX 107 SUMMERVILLE FAIR 93 72 49 W5 29.98S HX 100 BEAUFORT MCAS PTSUNNY 94 71 47 N9 29.97F HX 101 BEAUFORT ARPT FAIR 93 73 52 W6 29.97F HX 102 HILTON HEAD IS SUNNY 91 70 49 W7 30.00S HX 97 GEORGETOWN NOT AVBL WALTERBORO CLEAR 95 61 31 W3 29.98S HX 95 ORANGEBURG MOSUNNY 93 70 46 VRB3 29.97F HX 99 BARNWELL FAIR 93 70 46 W6 29.98F HX 99 AIKEN FAIR 95 72 46 SW5 30.01F HX 103 MANNING FAIR 91 73 55 W3 29.97R HX 100 KINGSTREE NOT AVBL COLUMBIA MOSUNNY 96 63 33 N7 29.96F HX 97 SUMTER SUNNY 94 70 46 W7 29.95F HX 100 FLORENCE PTSUNNY 92 70 48 SW6 29.95F HX 97 MYRTLE BEACH NOT AVBL N MYRTLE BEACH SUNNY 86 77 74 S8 29.97S HX 97 $$ GAZ063-065-086>088-099>101-113>116-118-119-134-136>141-150-202100- ...GEORGIA... CITY SKY/WX TMP DP RH WIND PRES REMARKS SAVANNAH ARPT MOSUNNY 95 70 44 W7 29.99F HX 101 HUNTER AAF MOSUNNY 95 72 47 W7 29.97F HX 102 FORT STEWART MOSUNNY 95 71 46 VRB6 29.98F HX 102 STATESBORO NOT AVBL SYLVANIA PTCLDY 94 75 54 NW12 29.99F HX 104 CLAXTON FAIR 95 73 49 NW7 29.98F HX 105 THOMSON SUNNY 86 83 90 CALM 30.01F HX 107 AUGUSTA-BUSH MOSUNNY 96 69 41 NW8 29.96F HX 102 AUGUSTA-DANIEL MOSUNNY 96 69 41 VRB5 29.99F HX 102 SWAINSBORO FAIR 97 72 44 CALM 29.98F HX 105 VIDALIA N/A 95 72 46 W5 29.99F HX 103 ALMA SUNNY 93 71 48 W7 30.01F HX 100 WAYCROSS MOSUNNY 98 74 46 N5 30.00F HX 109 JESUP N/A 97 75 49 W6 29.99F HX 109 BRUNSWICK MOSUNNY 95 68 41 W7 30.00F HX 99 SAINT SIMONS MOSUNNY 94 70 45 W10 30.00F HX 100 $$ SCZ027-028-034-036>038-045-046-048>050-GAZ119-141-202100- ...LAKE AND SUPPLEMENTAL COASTAL OBSERVATIONS... STATION/POSITION TIME TEMP WIND PRES WAVE SWELL AIR SEA DIR/SP/G HT/PER HT/PER/DIR (UTC) (F) (DEG/KT/KT) (MB) (FT/S) (FT/S/D) UPR LAKE MARION NOT AVBL WINYAH BAY 2000 82 130/ 7 1015.0R LAKE MURRAY 2000 91 170/ 4/ 5 1014.6S ACE BASIN NERRS 2000 93 300/ 3 1016.0S FORT PULASKI 2000 91 290/ 10/ 12 1015.5F SAPELO ISLAND 2000 94 270/ 9 1017.0S $$ ANZ835-935-AMZ111-154-330-350-352-354-374-450-454-472-202100- ...C-MAN AND BUOY OBSERVATIONS... STATION/POSITION TIME TEMP WIND PRES WAVE SWELL AIR SEA DIR/SP/G HT/PER HT/PER/DIR (UTC) (F) (DEG/KT/KT) (MB) (FT/S) (FT/S/D) FOLLY BEACH CMAN 2000 85 210/ 14/ 16 1015.3F BUOY 41004 2000 83 84 220/ 14/ 14 1014.5F 3/ 6 2/ 8 BUOY 41008 2000 85 85 200/ 10/ 12 1015.9F 1/ 8 2/100/ 8 5E ST. MARYS GA 2000 85 N/A 1/ 8 FRYING PAN BUOY NOT AVBL BUOY 41025 2000 78 320/ 6/ 8 1014.7R 2/ 8 2/110/ 8 CAPE LOOKOUT NC 2000 81 170/ 8/ 9 1014.7F BUOY 41002 1902 78 81 250/ 12/ 17 1016.9 5/ 7 3/270/ 7 BUOY 41010 2000 85 86 290/ 4/ 6 1018.0F 2/ 8 2/140/ 8 BUOY 41012 NOT AVBL ST AUGUSTINE FL 2000 91 330/ 6/ 7 1017.3F CAPERS NEARSHORE 1900 85 210/ 14/ 16 N/A FRIPP NEARSHORE NOT AVBL $$

USA.gov is the U.S. government's official web portal to all federal, state and local government web resources and services.